PBO Station Position Time Series. Reference Frame : NAM14
Format Version,1.1.1
4-character ID,SRS1
Station name,SRS1_SCGN_CS2000
Begin Date, 2000-06-16
End Date, 2023-06-26
Release Date, 2023-06-27
Reference position, 34.0043359420 North Latitude, -120.0652216269 East Longitude, 68.22165 meters elevation,
Date, North (mm), East (mm), Vertical (mm), North Std. Deviation (mm), East Std. Deviation (mm),              Vertical Std. Deviation (mm), Quality,
2000-06-16,0.00, 0.00, 0.00, 2.20, 2.02, 9.05, repro,
2000-06-17,-0.63, 1.28, -1.47, 2.11, 1.96, 8.52, repro,
2000-06-18,0.84, 0.29, 0.58, 2.04, 1.85, 8.19, repro,
2000-06-19,-0.08, 0.45, 6.54, 2.09, 1.85, 8.51, repro,
2000-06-20,0.07, 0.66, 3.73, 2.10, 1.87, 8.51, repro,
2000-06-21,1.69, 0.93, 0.02, 2.32, 2.12, 9.39, repro,
2000-06-22,0.55, 1.28, -2.99, 2.31, 2.21, 10.17, repro,
2000-06-23,0.49, 1.71, -5.60, 2.33, 2.14, 9.76, repro,
2000-06-24,0.47, 0.77, -1.93, 2.14, 1.83, 8.50, repro,
2000-06-25,-0.17, 0.69, -3.45, 2.14, 1.93, 8.55, repro,
2000-06-26,0.23, 1.39, -0.53, 2.17, 1.89, 8.83, repro,
2000-06-27,-0.72, 1.91, 0.53, 2.67, 2.12, 10.51, repro,
2000-07-06,0.59, 0.89, 3.90, 2.92, 2.80, 11.79, repro,
2000-07-07,-0.85, 2.00, -8.01, 2.23, 1.96, 8.78, repro,
2000-07-08,-1.27, 0.00, -4.26, 2.15, 1.93, 8.58, repro,
2000-07-09,-0.93, 1.12, -0.93, 2.18, 1.88, 8.72, repro,
2000-07-10,-0.40, 0.55, 2.79, 2.18, 1.87, 8.71, repro,
2000-07-11,-0.59, -0.31, 8.11, 2.19, 1.91, 8.58, repro,
2000-07-12,-0.77, -1.09, -2.26, 2.22, 2.01, 8.71, repro,
2000-07-13,-0.74, 1.58, -9.66, 2.13, 1.90, 8.54, repro,
2000-07-14,-1.30, 1.79, -8.65, 2.25, 2.00, 9.00, repro,
2000-07-15,-0.17, 2.34, -6.81, 2.15, 1.88, 8.60, repro,
2000-07-16,0.70, 0.51, -6.94, 2.07, 1.82, 8.39, repro,
2000-07-17,-1.21, 1.58, -0.70, 2.11, 1.86, 8.45, repro,
2000-07-18,0.07, 0.27, -10.87, 2.21, 1.97, 8.74, repro,
2000-07-19,-0.42, 2.16, -14.59, 2.25, 1.95, 9.01, repro,
2000-07-20,-0.33, 0.21, -3.05, 2.06, 1.81, 8.30, repro,
2000-07-21,1.01, 1.18, 3.03, 2.12, 1.86, 8.43, repro,
2000-07-22,-0.39, 1.07, -0.73, 2.28, 2.00, 9.39, repro,
2000-07-23,-2.00, 1.24, 5.64, 2.22, 1.89, 8.66, repro,
2000-12-14,-4.66, -0.77, 12.53, 6.78, 6.29, 28.11, repro,
2000-12-15,-2.42, -6.88, 16.13, 5.82, 5.45, 26.13, repro,
2000-12-16,-1.27, 1.40, 7.49, 5.72, 5.32, 24.61, repro,
2000-12-17,-0.12, 0.33, 12.17, 5.72, 5.51, 25.46, repro,
2000-12-18,-2.25, -2.03, 9.03, 7.96, 7.68, 33.87, repro,
2000-12-19,-2.22, 1.68, -2.25, 6.76, 5.93, 27.28, repro,
2000-12-20,-4.49, -2.25, 3.51, 5.49, 5.25, 23.61, repro,
2000-12-21,1.36, 2.33, -22.33, 6.36, 5.75, 25.96, repro,
2000-12-22,-1.89, -1.47, -3.81, 6.13, 5.74, 25.43, repro,
2000-12-23,-6.09, 1.73, 1.38, 5.41, 5.34, 23.25, repro,
2000-12-24,-1.87, 1.19, -15.48, 5.66, 5.41, 23.96, repro,
2000-12-25,-3.93, -3.11, -9.92, 6.17, 5.44, 24.80, repro,
2000-12-26,-1.08, -0.87, -10.59, 5.99, 5.58, 24.91, repro,
2000-12-27,-2.52, 0.46, 3.78, 5.72, 5.46, 24.33, repro,
2000-12-28,-3.96, 1.81, 17.48, 6.15, 6.05, 26.02, repro,
2000-12-29,-2.69, 1.35, -9.36, 6.34, 6.59, 25.79, repro,
2000-12-30,-5.84, 1.40, 8.97, 5.72, 5.35, 22.44, repro,
2000-12-31,0.15, -3.10, 16.28, 6.15, 6.11, 26.09, repro,
2001-01-01,-3.40, 1.33, 7.34, 6.06, 5.81, 25.90, repro,
2001-01-02,-3.56, 3.15, 13.30, 5.92, 5.73, 24.86, repro,
2001-01-03,-3.06, -4.92, 4.26, 5.77, 5.57, 23.62, repro,
2001-01-04,-1.95, -3.06, -0.17, 5.44, 5.48, 22.69, repro,
2001-01-05,0.46, -0.98, 7.44, 6.23, 5.95, 24.82, repro,
2001-01-06,-4.62, 0.34, 9.31, 6.87, 6.04, 26.51, repro,
2001-01-07,4.44, 5.52, -6.63, 5.76, 5.58, 23.02, repro,
2001-01-08,0.01, -0.49, 2.26, 5.66, 5.54, 23.32, repro,
2001-01-09,-1.35, 4.03, 18.47, 5.57, 5.35, 21.97, repro,
2001-01-10,1.05, -1.18, 25.76, 5.77, 5.69, 24.18, repro,
2001-01-11,0.21, 2.03, 5.56, 5.50, 5.57, 22.58, repro,
2001-01-12,-3.44, -2.26, -3.94, 5.82, 5.81, 24.02, repro,
2001-01-13,0.73, 2.71, 15.94, 5.94, 6.17, 26.13, repro,
2001-01-14,2.23, -3.64, 2.78, 5.61, 5.76, 23.02, repro,
2001-01-15,-1.00, 5.19, 22.39, 5.66, 5.45, 22.66, repro,
2001-01-16,-2.40, 1.75, -1.29, 5.49, 5.45, 21.76, repro,
2001-01-17,-2.12, 0.59, -2.79, 6.18, 6.64, 27.09, repro,
2001-01-18,-2.09, -2.77, -1.79, 5.48, 5.77, 23.32, repro,
2001-01-19,-3.49, -5.03, 0.29, 7.67, 9.46, 34.28, repro,
2001-01-20,0.07, 2.15, 0.49, 5.51, 5.78, 23.30, repro,
2001-01-21,-1.63, -1.79, -12.13, 6.53, 7.08, 31.14, repro,
2001-01-22,0.38, -0.41, -4.25, 5.77, 6.04, 24.43, repro,
2001-01-23,-1.97, 1.69, -14.60, 6.15, 6.96, 28.58, repro,
2001-01-24,-2.33, -0.86, 3.50, 5.81, 6.20, 25.52, repro,
2001-01-25,-2.35, 7.30, -4.98, 6.35, 6.74, 25.52, repro,
2001-01-26,-2.25, -2.25, -6.84, 5.93, 6.11, 25.21, repro,
2001-01-27,-3.41, 0.19, 7.08, 5.64, 5.98, 23.51, repro,
2001-01-28,0.22, -1.86, -1.47, 5.73, 6.19, 25.34, repro,
2001-01-29,-2.55, 2.16, 2.48, 5.89, 6.21, 27.22, repro,
2001-01-30,0.16, 2.73, -4.01, 5.54, 5.46, 23.13, repro,
2001-01-31,-5.65, -0.62, 20.26, 5.94, 5.79, 25.54, repro,
2001-02-01,-1.25, 4.97, 2.01, 5.74, 5.92, 24.83, repro,
2001-02-02,-2.08, -0.81, 3.29, 5.65, 5.61, 24.25, repro,
2001-02-03,0.96, 1.58, -16.86, 5.39, 5.42, 23.45, repro,
2001-02-04,0.78, 2.45, -1.97, 5.48, 5.33, 23.73, repro,
2001-02-05,-5.37, 1.09, 18.10, 6.92, 6.19, 29.47, repro,
2001-02-06,0.60, 2.67, -16.46, 5.72, 5.77, 25.56, repro,
2001-02-07,-6.76, 4.66, 3.32, 5.76, 5.88, 26.79, repro,
2001-02-08,2.32, 0.50, -5.02, 6.18, 6.62, 30.30, repro,
2001-02-09,1.30, 0.98, -2.94, 6.28, 7.71, 29.06, repro,
2001-02-10,1.17, -3.12, -9.33, 5.31, 5.31, 23.72, repro,
2001-02-11,-1.00, 3.65, 3.80, 6.52, 6.82, 24.78, repro,
2001-02-12,-0.56, 0.04, 11.10, 6.00, 6.54, 26.11, repro,
2001-02-13,4.32, 0.36, -13.07, 5.31, 5.32, 23.75, repro,
2001-02-14,-0.85, 3.36, 19.11, 5.58, 5.35, 25.38, repro,
2001-02-15,-1.73, -0.74, 10.89, 5.68, 5.72, 27.52, repro,
2001-02-16,2.05, 0.01, -2.91, 5.24, 5.47, 23.56, repro,
2001-02-17,-2.56, 0.15, -5.02, 5.40, 5.28, 24.06, repro,
2001-02-18,7.75, -3.36, -24.99, 5.88, 6.34, 24.46, repro,
2001-02-19,-2.28, -0.76, 20.12, 5.47, 5.21, 24.41, repro,
2001-02-20,-0.05, -0.78, -2.52, 5.29, 5.35, 23.31, repro,
2001-02-21,-0.37, 2.69, -3.81, 5.82, 6.19, 23.71, repro,
2001-02-22,-1.04, -1.63, 3.01, 5.21, 5.23, 22.62, repro,
2001-02-23,-0.83, 3.06, 11.02, 6.00, 6.58, 24.07, repro,
2001-02-24,-0.46, 2.06, 11.64, 6.80, 7.52, 28.78, repro,
2001-02-25,-0.21, -1.51, -9.25, 5.65, 6.67, 27.53, repro,
2001-02-26,1.79, 2.32, -6.70, 6.79, 7.69, 30.10, repro,
2001-02-27,2.31, 1.55, -12.85, 5.59, 5.65, 23.76, repro,
2001-02-28,0.38, 2.49, -3.11, 5.55, 5.45, 23.27, repro,
2001-03-01,2.38, -1.24, 10.61, 5.77, 6.22, 22.30, repro,
2001-03-02,-1.23, 0.23, -5.33, 5.89, 6.65, 22.26, repro,
2001-03-03,0.24, 2.40, -13.69, 6.01, 6.09, 22.18, repro,
2001-03-04,-0.37, 3.43, 9.56, 5.40, 5.36, 22.04, repro,
2001-03-05,-1.45, 1.43, 5.41, 6.09, 6.38, 22.46, repro,
2001-03-06,1.68, -3.90, 10.09, 5.29, 5.28, 20.84, repro,
2001-03-07,3.60, 1.25, -8.75, 5.35, 5.33, 20.93, repro,
2001-03-08,1.76, 2.37, 17.69, 5.48, 5.18, 20.90, repro,
2001-03-09,-1.32, -3.07, 23.74, 5.83, 5.90, 24.03, repro,
2001-03-10,-1.92, 9.92, 24.36, 6.26, 6.80, 23.58, repro,
2001-03-11,3.59, 5.61, 7.21, 5.82, 5.95, 20.63, repro,
2001-03-12,2.43, -1.03, 11.23, 6.00, 6.11, 20.96, repro,
2001-03-13,2.66, 4.83, 3.46, 5.49, 5.18, 20.60, repro,
2001-03-14,2.13, 4.07, 0.53, 5.48, 5.37, 21.00, repro,
2001-03-15,2.80, 3.66, 7.76, 6.22, 6.16, 25.56, repro,
2001-03-16,-0.71, 5.31, 4.39, 6.28, 6.04, 25.61, repro,
2001-03-17,-2.21, -2.94, 7.86, 6.20, 6.12, 22.19, repro,
2001-03-18,0.31, 1.80, -16.08, 5.34, 5.22, 20.33, repro,
2001-03-19,3.14, 2.07, -8.45, 5.36, 5.25, 20.91, repro,
2001-03-20,2.73, -0.25, 3.25, 6.16, 6.36, 26.58, repro,
2001-03-21,0.49, 6.45, 2.03, 5.76, 5.64, 23.58, repro,
2001-03-22,-0.70, 1.58, -8.01, 5.77, 5.67, 22.98, repro,
2001-05-09,-0.29, 1.52, 4.57, 2.09, 1.83, 8.19, repro,
2001-05-10,-1.39, 1.87, 1.13, 2.05, 1.87, 8.31, repro,
2001-05-11,-0.56, 2.87, 1.08, 2.10, 1.88, 8.48, repro,
2001-05-12,-1.24, 2.01, 1.60, 2.06, 1.88, 8.28, repro,
2001-05-13,0.17, 2.22, -2.67, 2.01, 1.77, 7.96, repro,
2001-05-14,-0.88, 1.28, 4.76, 2.07, 1.86, 8.29, repro,
2001-05-15,0.60, 1.20, -0.45, 2.06, 1.88, 8.25, repro,
2001-05-16,0.61, 1.46, -2.75, 2.06, 1.85, 8.11, repro,
2001-05-17,-0.10, 1.79, 6.27, 2.12, 1.95, 8.44, repro,
2001-05-18,-0.73, 2.80, 1.41, 2.09, 1.93, 8.46, repro,
2001-05-19,-0.22, 1.26, 0.35, 2.07, 1.86, 8.21, repro,
2001-05-20,-0.10, 1.90, 2.45, 2.03, 1.82, 8.05, repro,
2001-05-21,-0.08, 2.46, 3.40, 2.04, 1.87, 8.27, repro,
2001-05-22,-0.73, 0.84, 5.06, 2.11, 2.04, 8.76, repro,
2001-05-23,-1.14, 1.90, 1.52, 2.09, 1.90, 8.53, repro,
2001-05-24,-0.28, 1.91, 5.61, 2.21, 1.91, 8.64, repro,
2001-05-25,-0.26, 0.70, 6.08, 2.16, 1.88, 8.38, repro,
2001-05-26,0.19, 1.37, 10.94, 2.20, 1.96, 8.69, repro,
2001-05-27,-0.28, 1.86, 7.24, 2.18, 1.96, 8.72, repro,
2001-05-28,1.64, 1.06, 6.58, 2.12, 1.94, 8.41, repro,
2001-05-29,-0.10, -0.15, 5.92, 2.07, 1.81, 8.09, repro,
2001-05-30,0.65, 0.72, 6.60, 2.17, 1.89, 8.47, repro,
2001-05-31,0.65, 1.78, 5.44, 2.12, 1.82, 8.22, repro,
2001-06-01,0.22, 1.82, 7.51, 2.17, 1.96, 8.67, repro,
2001-06-02,0.26, -0.32, 4.42, 2.11, 2.00, 8.62, repro,
2001-06-03,1.68, 2.70, 3.81, 2.05, 1.83, 8.15, repro,
2001-06-04,0.42, 0.48, 2.82, 2.10, 1.91, 8.55, repro,
2001-06-05,-0.74, 0.84, 3.31, 2.15, 1.91, 8.52, repro,
2001-06-06,-0.21, 1.72, 2.38, 2.15, 1.95, 8.57, repro,
2001-06-07,-0.44, 0.50, 7.00, 2.15, 2.07, 8.81, repro,
2001-06-08,-0.66, 1.84, 9.20, 2.10, 1.83, 8.31, repro,
2001-06-09,1.79, 0.38, 0.52, 2.17, 1.91, 8.68, repro,
2001-06-10,-1.26, 2.33, 8.53, 2.16, 1.91, 8.53, repro,
2001-06-11,0.95, 1.73, 3.43, 2.16, 1.92, 8.57, repro,
2001-06-12,-0.84, 3.76, 3.08, 2.18, 1.90, 8.47, repro,
2001-06-13,-0.28, 2.12, 8.36, 2.12, 1.98, 8.54, repro,
2001-06-14,0.73, 2.98, 7.68, 2.13, 1.82, 8.28, repro,
2001-06-15,-0.17, -0.67, 3.68, 2.12, 1.96, 8.51, repro,
2001-06-16,-0.67, 0.81, 0.92, 2.15, 1.90, 8.43, repro,
2001-06-17,-0.39, 1.57, 0.93, 2.25, 1.97, 8.85, repro,
2001-06-18,-1.06, 2.66, 2.02, 2.16, 1.95, 8.63, repro,
2001-06-19,-0.18, 1.88, 2.34, 2.14, 1.96, 8.45, repro,
2001-06-20,0.61, 0.38, -1.98, 2.19, 2.00, 8.74, repro,
2001-06-21,-2.01, 1.41, 8.77, 2.11, 1.95, 8.31, repro,
2001-06-22,-1.66, 0.08, 3.71, 2.13, 1.91, 8.38, repro,
2001-06-23,-1.21, 1.18, -6.86, 2.15, 1.92, 8.58, repro,
2001-06-24,-1.55, 0.96, 12.43, 2.08, 1.93, 8.16, repro,
2001-06-25,-0.33, 1.00, 11.31, 2.05, 1.88, 8.14, repro,
2001-06-26,-0.43, 3.05, 11.77, 2.09, 1.98, 8.48, repro,
2001-06-27,0.31, 1.72, -5.62, 2.11, 1.95, 8.30, repro,
2001-06-28,0.45, -0.85, 1.23, 2.07, 1.93, 8.24, repro,
2001-06-29,0.47, 1.89, -9.66, 2.08, 1.97, 8.34, repro,
2001-06-30,-1.90, 1.27, -1.30, 2.13, 2.00, 8.62, repro,
2001-07-01,-0.72, 0.67, -0.66, 2.08, 1.90, 8.25, repro,
2001-07-02,-2.07, 1.69, 2.56, 2.07, 1.93, 8.32, repro,
2001-07-03,-0.73, 1.61, 3.27, 2.16, 2.03, 8.69, repro,
2001-07-04,-2.20, 0.43, -8.52, 2.08, 1.89, 8.17, repro,
2001-07-05,-1.26, 1.04, 3.21, 2.04, 1.87, 8.04, repro,
2001-07-06,0.56, 0.23, 1.53, 1.99, 1.72, 7.75, repro,
2001-07-07,-0.56, 0.55, -4.02, 2.09, 1.93, 8.19, repro,
2001-07-08,-0.84, 1.48, -3.31, 2.06, 1.88, 8.07, repro,
2001-07-09,-0.04, 3.25, -13.64, 2.10, 1.95, 8.35, repro,
2001-07-10,-0.32, -0.17, -14.00, 2.33, 2.15, 9.19, repro,
2001-07-11,-2.21, 2.13, -3.19, 2.07, 1.87, 8.08, repro,
2001-07-12,0.14, 1.32, -6.78, 2.15, 1.90, 8.40, repro,
2001-07-13,0.21, 2.95, -8.96, 2.19, 1.98, 8.59, repro,
2001-07-14,1.19, -0.79, -12.59, 2.09, 1.93, 8.23, repro,
2001-07-15,-0.39, 1.00, -2.71, 2.07, 1.93, 8.21, repro,
2001-07-17,-1.49, 0.49, 0.72, 2.08, 1.89, 8.24, repro,
2001-07-18,0.34, 1.94, -7.50, 2.10, 1.94, 8.26, repro,
2001-07-19,-0.87, 1.99, -5.48, 2.04, 1.85, 7.93, repro,
2001-07-20,0.40, 0.93, -8.73, 2.15, 1.94, 8.44, repro,
2001-07-21,-1.34, 0.31, -6.06, 2.06, 1.94, 8.24, repro,
2001-07-22,-1.65, 0.88, -8.92, 2.11, 1.96, 8.40, repro,
2001-07-23,0.62, 1.00, -5.18, 2.16, 1.98, 8.55, repro,
2001-07-24,-0.18, 1.19, 1.23, 2.07, 1.87, 8.09, repro,
2001-07-25,0.45, -0.27, -9.75, 2.07, 1.94, 8.27, repro,
2001-07-26,0.45, 1.99, -7.39, 2.25, 2.08, 8.97, repro,
2001-07-27,-2.36, 2.65, -3.31, 2.12, 1.95, 8.35, repro,
2001-07-28,1.25, 0.53, -8.29, 2.18, 2.05, 8.56, repro,
2001-07-29,-1.12, 1.94, -7.45, 2.16, 2.05, 8.50, repro,
2001-07-30,1.92, -0.59, -6.16, 2.31, 2.06, 8.94, repro,
2001-07-31,-0.46, 2.66, -11.81, 2.10, 1.96, 8.28, repro,
2001-08-01,-1.42, 0.25, -0.49, 2.12, 1.96, 8.32, repro,
2001-08-02,0.54, 2.25, -4.59, 2.15, 1.98, 8.46, repro,
2001-08-03,0.26, 2.50, -5.29, 2.20, 1.98, 8.53, repro,
2001-08-04,2.26, 2.69, -9.89, 2.16, 1.96, 8.42, repro,
2001-08-05,2.18, 1.33, -16.82, 2.24, 2.05, 8.84, repro,
2001-08-06,0.76, 0.16, -6.95, 2.24, 2.12, 8.97, repro,
2001-08-07,-0.37, -0.14, -5.06, 2.17, 1.96, 8.43, repro,
2001-08-08,1.92, 2.87, -8.09, 2.21, 2.10, 8.60, repro,
2001-08-09,-0.87, 0.27, 5.30, 2.25, 2.07, 8.68, repro,
2001-08-10,0.20, 2.85, -6.80, 2.24, 2.00, 8.68, repro,
2001-08-11,0.17, 0.27, -1.31, 2.16, 1.87, 8.35, repro,
2001-08-12,0.92, 1.10, -13.70, 2.24, 2.00, 8.75, repro,
2001-08-13,-0.34, 1.14, -10.16, 2.21, 1.96, 8.55, repro,
2001-08-14,-1.46, 1.46, 1.35, 2.17, 1.99, 8.25, repro,
2001-08-15,-2.86, 3.16, -5.03, 2.13, 1.92, 8.18, repro,
2001-08-16,0.08, 2.91, -7.44, 2.18, 1.87, 8.31, repro,
2001-08-17,-1.73, 3.88, -7.37, 2.19, 1.93, 8.32, repro,
2001-08-18,0.02, 0.97, -2.64, 2.28, 1.91, 8.62, repro,
2001-08-19,1.09, 1.96, 1.51, 2.11, 1.83, 7.98, repro,
2001-08-20,-0.65, 2.72, -4.96, 2.33, 2.03, 8.87, repro,
2001-08-21,-1.41, 0.81, -1.38, 2.73, 2.25, 9.85, repro,
2001-08-22,-0.07, 2.15, -4.41, 2.22, 1.97, 8.48, repro,
2001-08-23,0.91, 1.75, -12.56, 2.18, 1.88, 8.30, repro,
2001-08-24,3.40, 0.96, -8.06, 2.24, 1.95, 8.46, repro,
2001-08-25,-1.12, 1.22, 6.38, 2.15, 1.87, 8.42, repro,
2001-08-26,0.52, 2.10, -8.33, 2.25, 1.95, 8.47, repro,
2001-08-27,-0.59, 2.36, -8.57, 2.19, 1.89, 8.43, repro,
2001-08-28,0.09, 2.36, -0.54, 2.35, 2.00, 8.97, repro,
2001-08-29,-0.95, 2.96, 0.73, 2.34, 2.02, 8.97, repro,
2001-08-30,-1.86, 1.92, 2.21, 2.33, 1.99, 8.80, repro,
2001-08-31,-1.20, 2.27, 11.84, 2.45, 2.07, 9.09, repro,
2001-09-01,-0.01, 3.25, -10.91, 2.21, 2.03, 8.76, repro,
2001-09-02,-0.43, 1.61, -0.39, 2.19, 1.97, 8.44, repro,
2001-09-03,1.28, 0.86, -4.31, 2.25, 2.01, 8.90, repro,
2001-09-04,-1.23, 2.50, 7.12, 2.22, 1.97, 8.80, repro,
2001-09-05,1.46, -0.46, 6.21, 2.35, 2.14, 9.25, repro,
2001-09-06,1.48, 1.35, -8.44, 2.27, 2.01, 8.67, repro,
2001-09-07,-0.69, 2.91, -6.01, 2.12, 1.93, 8.38, repro,
2001-09-08,-0.03, 2.67, 0.50, 2.14, 2.01, 8.51, repro,
2001-09-09,-1.23, 2.72, 1.48, 2.17, 2.02, 8.46, repro,
2001-09-10,-0.78, 1.38, -6.58, 2.06, 1.85, 8.15, repro,
2001-09-11,-0.15, 1.39, -3.50, 2.16, 2.01, 8.52, repro,
2001-09-12,0.73, 1.78, 1.27, 2.12, 1.92, 8.35, repro,
2001-09-13,-0.08, 2.48, 2.72, 2.07, 1.84, 8.16, repro,
2001-09-14,-0.63, 1.84, -0.71, 2.04, 1.78, 7.97, repro,
2001-09-15,-0.34, 2.66, 3.90, 2.10, 1.92, 8.30, repro,
2001-09-16,-0.25, 1.37, 3.39, 2.12, 1.91, 8.29, repro,
2001-09-17,-1.11, 2.12, 12.22, 2.07, 1.83, 8.10, repro,
2001-09-18,-0.57, 1.91, 4.64, 2.15, 1.97, 8.49, repro,
2001-09-19,0.32, 2.17, 1.69, 2.19, 1.99, 8.70, repro,
2001-09-20,-1.15, 1.60, 8.83, 2.18, 1.99, 8.72, repro,
2001-09-21,-0.70, 1.25, -0.59, 2.06, 1.83, 8.16, repro,
2001-09-22,-0.82, 1.88, 7.75, 2.08, 1.84, 8.20, repro,
2001-09-23,-1.00, 2.24, -0.82, 2.20, 1.98, 8.83, repro,
2001-09-24,-0.22, 2.69, -2.24, 2.12, 1.90, 8.53, repro,
2001-09-25,-1.40, 2.85, 20.19, 2.15, 1.92, 8.43, repro,
2001-09-26,-0.46, 2.88, -2.39, 2.13, 1.93, 8.57, repro,
2001-09-27,-0.88, 2.53, 5.96, 2.15, 1.98, 8.52, repro,
2001-09-28,-1.60, 2.31, 2.73, 2.12, 1.90, 8.28, repro,
2001-09-29,-0.08, 0.30, -2.36, 2.20, 2.06, 8.76, repro,
2001-09-30,-0.66, 2.11, 5.78, 2.11, 1.89, 8.30, repro,
2001-10-01,-1.03, 1.54, 4.87, 2.06, 1.78, 8.05, repro,
2001-10-02,-0.86, 2.86, 5.46, 2.13, 1.91, 8.44, repro,
2001-10-03,-0.28, 1.07, 5.00, 2.24, 1.99, 8.88, repro,
2001-10-04,0.45, 0.97, -3.91, 2.57, 2.37, 10.95, repro,
2001-10-05,0.83, 3.01, -1.64, 2.66, 2.28, 11.24, repro,
2001-10-06,-1.60, 2.43, -5.42, 2.14, 1.91, 8.29, repro,
2001-10-07,-1.59, 2.29, 1.28, 2.17, 1.87, 8.46, repro,
2001-10-08,-0.86, 1.70, -4.99, 2.22, 1.93, 8.78, repro,
2001-10-09,0.44, 0.48, 3.30, 2.18, 1.95, 8.78, repro,
2001-10-10,-0.56, 2.91, -9.27, 2.20, 1.92, 8.67, repro,
2001-10-11,-0.65, 1.55, 4.01, 2.19, 1.89, 8.57, repro,
2001-10-12,-0.42, 2.73, 2.43, 2.15, 1.82, 8.47, repro,
2001-10-13,-0.39, 2.58, 6.15, 2.12, 1.90, 8.40, repro,
2001-10-14,-0.64, 0.89, -0.23, 2.14, 1.88, 8.35, repro,
2001-10-15,0.10, 1.53, 0.03, 2.22, 1.92, 8.53, repro,
2001-10-16,-2.37, 0.88, 0.46, 2.20, 1.82, 8.52, repro,
2001-10-17,-1.51, 3.52, -0.55, 2.29, 1.95, 8.79, repro,
2001-10-18,-0.91, 0.95, 4.10, 2.20, 1.87, 8.65, repro,
2001-10-19,-1.87, 0.54, 2.79, 2.35, 1.98, 9.03, repro,
2001-10-20,0.51, 2.44, 3.25, 2.24, 1.95, 8.85, repro,
2001-10-21,-1.51, 3.32, 1.59, 2.33, 1.92, 8.99, repro,
2001-10-22,-1.67, -1.22, 3.54, 2.27, 2.10, 8.85, repro,
2001-10-23,-0.02, 0.72, 4.92, 2.23, 1.86, 8.65, repro,
2001-10-24,0.44, 2.67, 2.58, 2.23, 1.87, 8.70, repro,
2001-10-25,-1.62, 3.37, -2.45, 2.55, 2.15, 9.46, repro,
2001-10-26,-0.73, 1.00, 3.07, 2.17, 1.89, 8.46, repro,
2001-10-27,-2.77, 2.47, 4.88, 2.24, 1.98, 8.62, repro,
2001-10-28,0.24, 2.10, 1.02, 2.27, 2.05, 8.93, repro,
2001-10-29,0.02, 1.29, 6.10, 2.12, 1.80, 8.27, repro,
2001-10-30,0.07, 1.29, 1.94, 2.19, 1.95, 8.61, repro,
2001-10-31,1.16, 2.55, 2.63, 2.13, 1.84, 8.41, repro,
2001-11-01,0.89, 1.66, 0.69, 2.16, 1.89, 8.52, repro,
2001-11-02,-1.22, 1.65, 10.12, 2.21, 1.96, 8.65, repro,
2001-11-03,-0.01, 1.38, 1.46, 2.27, 1.98, 8.78, repro,
2001-11-04,-1.35, 1.87, 0.26, 2.23, 1.99, 8.78, repro,
2001-11-05,-0.70, 2.41, 2.36, 2.27, 2.02, 9.02, repro,
2001-11-06,-1.08, 1.47, 4.85, 2.36, 2.16, 9.16, repro,
2001-11-07,-0.55, 1.62, 0.33, 2.27, 1.94, 8.81, repro,
2001-11-08,-1.83, 1.48, 4.37, 2.40, 2.11, 9.33, repro,
2001-11-09,-0.08, 0.85, 3.54, 2.32, 1.98, 9.37, repro,
2001-11-10,-1.98, 0.81, 2.99, 2.13, 1.84, 8.27, repro,
2001-11-11,-1.61, -0.10, 4.43, 2.07, 1.76, 8.09, repro,
2001-11-12,-1.60, 2.61, 0.31, 2.10, 1.80, 8.23, repro,
2001-11-13,-2.12, 2.61, 8.67, 2.29, 1.93, 8.80, repro,
2001-11-14,-1.10, -0.33, 7.36, 2.19, 1.82, 8.44, repro,
2001-11-15,-1.20, 3.54, -2.02, 2.24, 1.89, 8.89, repro,
2001-11-16,-1.72, 1.78, -1.17, 2.26, 2.02, 8.88, repro,
2001-11-17,-1.68, 2.00, 4.67, 2.19, 1.99, 8.68, repro,
2001-11-18,-1.98, 1.27, -5.57, 2.12, 1.90, 8.67, repro,
2001-11-19,-2.61, 0.88, -6.72, 2.13, 1.85, 8.57, repro,
2001-11-20,-2.65, 1.41, 10.72, 2.32, 2.02, 9.39, repro,
2001-11-21,-3.94, 2.45, 8.29, 2.24, 2.08, 9.12, repro,
2001-11-22,-1.90, 2.96, -0.41, 2.23, 1.98, 8.95, repro,
2001-11-23,-3.84, 2.43, 0.27, 2.41, 2.05, 9.73, repro,
2001-11-24,-0.38, 1.83, 10.57, 2.38, 2.02, 9.56, repro,
2001-11-25,-1.87, 2.80, 2.99, 2.26, 1.87, 8.64, repro,
2001-11-26,-2.22, 4.30, 1.31, 2.41, 2.21, 9.78, repro,
2001-11-27,-2.54, 2.61, -11.19, 3.20, 3.02, 12.59, repro,
2002-02-13,-1.23, -1.15, 6.55, 5.37, 5.02, 21.46, repro,
2002-02-14,-0.69, 1.86, 1.31, 2.33, 2.28, 9.55, repro,
2002-02-15,-0.18, 0.29, 5.54, 2.24, 2.11, 9.10, repro,
2002-02-16,-2.03, 1.44, 4.04, 2.18, 1.96, 8.84, repro,
2002-02-17,-2.57, 0.43, 3.47, 2.07, 1.94, 8.59, repro,
2002-02-18,-2.45, 2.73, 10.69, 2.18, 2.11, 9.08, repro,
2002-02-19,1.20, 0.70, 14.99, 2.20, 2.01, 9.03, repro,
2002-02-20,3.23, 2.84, 7.11, 2.24, 2.06, 9.06, repro,
2002-02-21,-0.21, 2.25, 5.04, 2.19, 2.02, 8.88, repro,
2002-02-22,-0.32, 1.95, -9.33, 2.32, 2.09, 9.47, repro,
2002-02-23,-0.69, 3.60, -0.69, 2.25, 2.16, 9.76, repro,
2002-02-24,-0.88, 4.35, 13.60, 2.23, 2.03, 9.11, repro,
2002-02-25,-0.35, 1.34, 16.43, 2.23, 2.06, 9.09, repro,
2002-02-26,-0.68, 2.78, 7.31, 2.39, 2.17, 9.77, repro,
2002-02-27,-0.61, 2.64, 5.58, 2.27, 2.06, 9.51, repro,
2002-02-28,-1.25, 2.64, 6.80, 2.18, 2.04, 9.03, repro,
2002-03-01,-0.09, 1.72, 17.18, 2.18, 2.07, 8.95, repro,
2002-03-02,-1.82, 1.67, 11.64, 1.97, 1.83, 8.24, repro,
2002-03-03,-0.57, 0.30, -1.13, 2.06, 1.96, 8.51, repro,
2002-03-04,-1.54, 2.86, 7.80, 2.05, 1.93, 8.56, repro,
2002-03-05,-1.14, 4.00, -7.69, 2.04, 1.88, 8.54, repro,
2002-03-06,-0.84, -0.30, -1.45, 2.23, 1.97, 9.33, repro,
2002-03-07,-1.63, 1.20, -1.61, 2.01, 1.80, 8.27, repro,
2002-03-08,-1.19, 1.26, 3.49, 2.32, 2.07, 9.26, repro,
2002-03-09,-1.82, 0.17, 8.53, 2.10, 1.87, 8.87, repro,
2002-03-10,-0.24, 2.27, -3.69, 2.06, 1.85, 8.55, repro,
2002-03-11,1.26, 2.00, -5.31, 2.08, 2.00, 8.83, repro,
2002-03-12,-0.36, 1.22, 3.17, 2.01, 1.84, 8.33, repro,
2002-03-13,-1.42, 2.55, 9.31, 2.03, 1.82, 8.30, repro,
2002-03-14,-2.35, 2.29, 5.79, 2.08, 1.84, 8.42, repro,
2002-03-15,-2.45, 2.17, 13.15, 2.05, 1.90, 8.60, repro,
2002-03-16,-2.62, 2.19, 3.25, 1.98, 1.79, 8.23, repro,
2002-03-17,-0.47, 2.38, 0.98, 2.09, 1.88, 8.46, repro,
2002-03-18,-0.81, 1.86, -3.11, 2.18, 2.16, 9.10, repro,
2002-03-19,-1.08, 1.38, 0.48, 2.01, 1.86, 8.39, repro,
2002-03-20,-1.47, 1.01, -0.11, 2.04, 1.90, 8.51, repro,
2002-03-21,-1.17, 1.57, -1.43, 2.03, 1.85, 8.43, repro,
2002-03-22,-0.77, 0.59, -7.22, 2.01, 1.85, 8.39, repro,
2002-03-23,-0.16, 1.62, -2.91, 2.07, 1.88, 8.44, repro,
2002-03-24,-2.83, 5.33, -4.63, 2.11, 1.88, 8.44, repro,
2002-03-25,-0.64, 2.15, 0.06, 2.02, 1.76, 8.23, repro,
2002-03-26,-1.36, 1.85, -6.65, 2.09, 1.88, 8.66, repro,
2002-03-27,-1.67, 2.01, -2.20, 2.25, 2.12, 9.47, repro,
2002-03-28,-0.54, 0.10, 1.57, 2.23, 2.09, 9.22, repro,
2002-03-29,-0.72, 3.53, -11.62, 2.31, 2.12, 9.28, repro,
2002-03-30,-1.25, 1.86, -5.86, 2.12, 1.87, 8.60, repro,
2002-03-31,-1.85, 0.23, 7.72, 2.20, 1.85, 9.05, repro,
2002-04-01,-1.63, 0.88, 1.24, 2.14, 1.95, 8.76, repro,
2002-04-02,-1.48, 2.10, -1.53, 2.13, 1.88, 8.65, repro,
2002-04-03,-1.74, 1.40, -0.64, 2.14, 1.97, 8.85, repro,
2002-04-04,-1.62, 2.26, -6.07, 2.11, 1.92, 8.64, repro,
2002-04-05,-0.74, 1.48, -6.45, 2.21, 1.92, 8.83, repro,
2002-04-06,-0.60, 1.67, -7.55, 2.18, 1.97, 9.00, repro,
2002-04-07,-1.28, 2.61, 1.36, 2.07, 1.75, 8.30, repro,
2002-04-08,-1.73, 0.38, 5.62, 2.19, 2.02, 8.84, repro,
2002-04-09,-1.52, 0.56, 2.55, 2.21, 2.00, 8.79, repro,
2002-04-10,0.37, 4.52, -5.61, 2.26, 1.98, 9.29, repro,
2002-04-11,-1.51, 2.11, -2.44, 2.06, 1.78, 8.33, repro,
2002-04-12,-1.40, 1.28, -2.90, 2.30, 2.00, 9.37, repro,
2002-04-13,-1.04, 0.66, 4.24, 2.17, 1.96, 8.76, repro,
2002-04-14,-1.01, 0.52, 16.17, 2.12, 1.86, 8.38, repro,
2002-04-15,-0.93, 3.24, 9.57, 2.25, 2.03, 9.50, repro,
2002-04-16,-0.36, 1.59, 8.21, 2.20, 2.12, 9.23, repro,
2002-04-17,-0.32, 2.21, 3.62, 2.10, 1.80, 8.62, repro,
2002-04-18,-0.10, 2.11, 6.21, 2.13, 1.92, 8.83, repro,
2002-04-19,-1.36, 3.31, 0.57, 2.34, 2.08, 10.05, repro,
2002-04-20,-1.36, 1.14, 3.13, 2.09, 1.87, 8.44, repro,
2002-04-21,-2.45, 2.27, 5.36, 2.18, 1.92, 8.95, repro,
2002-04-22,-1.41, 2.06, 4.05, 2.08, 1.93, 8.69, repro,
2002-04-23,-1.54, 2.29, 0.88, 2.12, 1.99, 9.02, repro,
2002-04-24,-1.24, 1.23, -0.95, 2.32, 2.09, 9.47, repro,
2002-04-25,-0.49, 2.42, -1.17, 2.05, 1.80, 8.37, repro,
2002-04-26,-0.78, 0.25, 4.19, 2.11, 1.80, 8.50, repro,
2002-04-27,1.17, 2.19, 3.58, 2.09, 1.88, 8.54, repro,
2002-04-28,1.16, 1.98, -5.23, 2.28, 1.94, 9.09, repro,
2002-04-29,-1.94, 1.82, 1.15, 2.11, 1.88, 8.49, repro,
2002-04-30,-2.37, 2.82, 2.51, 2.29, 1.91, 9.20, repro,
2002-05-01,-0.57, 2.84, 11.06, 2.16, 1.85, 8.79, repro,
2002-05-02,-0.95, 2.32, -3.59, 2.07, 1.87, 8.54, repro,
2002-05-03,-0.12, 1.53, 4.17, 2.23, 1.89, 8.94, repro,
2002-05-04,-1.59, 1.20, 0.57, 2.06, 1.81, 8.32, repro,
2002-05-05,-1.79, 0.76, 3.54, 2.25, 1.92, 8.83, repro,
2002-05-06,-1.92, 0.40, 3.02, 2.15, 1.90, 8.54, repro,
2002-05-07,-0.57, 0.30, -11.55, 2.25, 1.95, 9.02, repro,
2002-05-08,-1.24, -0.22, 3.21, 2.34, 2.12, 9.60, repro,
2002-05-09,-0.13, -0.32, 1.01, 2.07, 1.83, 8.31, repro,
2002-05-10,-2.48, 1.10, 2.92, 2.14, 1.82, 8.56, repro,
2002-05-11,-1.36, 0.79, 6.77, 2.08, 1.79, 8.17, repro,
2002-05-12,-1.79, 1.12, -0.68, 2.20, 1.83, 8.57, repro,
2002-05-13,-4.39, 1.08, 11.20, 2.41, 2.12, 10.06, repro,
2002-05-14,-0.51, 3.02, -4.62, 2.35, 1.93, 9.05, repro,